EN

Hourly Weather London

Today, 17 April, Saturday

Time Temperature Precipitation Wind Pressure Humidity
00:00 +2°C° 0 mm 2 mps 771 mmHg 82%
01:00 +3°C° 0 mm 1 mps 771 mmHg 82%
02:00 +2°C° 0 mm 1 mps 771 mmHg 82%
03:00 +2°C° 0 mm 1 mps 771 mmHg 82%
04:00 +1°C° 0 mm 2 mps 771 mmHg 81%
05:00 +1°C° 0 mm 2 mps 771 mmHg 79%
06:00 +1°C° 0 mm 2 mps 771 mmHg 77%
07:00 +3°C° 0 mm 2 mps 771 mmHg 69%
08:00 +4°C° 0 mm 3 mps 771 mmHg 60%
09:00 +7°C° 0 mm 3 mps 771 mmHg 52%
10:00 +8°C° 0 mm 3 mps 770 mmHg 49%
11:00 +9°C° 0 mm 3 mps 770 mmHg 46%
12:00 +11°C° 0 mm 3 mps 770 mmHg 43%
13:00 +11°C° 0 mm 3 mps 769 mmHg 44%
14:00 +11°C° 0 mm 3 mps 769 mmHg 45%
15:00 +11°C° 0 mm 3 mps 768 mmHg 45%
16:00 +10°C° 0 mm 3 mps 768 mmHg 52%
17:00 +9°C° 0 mm 3 mps 768 mmHg 58%
18:00 +8°C° 0 mm 3 mps 768 mmHg 65%
19:00 +7°C° 0 mm 2 mps 768 mmHg 68%
20:00 +6°C° 0 mm 2 mps 769 mmHg 72%
21:00 +5°C° 0 mm 1 mps 769 mmHg 76%
22:00 +5°C° 0 mm 1 mps 769 mmHg 77%
23:00 +5°C° 0 mm 1 mps 769 mmHg 78%

Tomorrow, 18 April, Sunday

Time Temperature Precipitation Wind Pressure Humidity
00:00 +4°C° 0 mm 1 mps 768 mmHg 79%
01:00 +4°C° 0 mm 1 mps 768 mmHg 80%
02:00 +4°C° 0 mm 1 mps 768 mmHg 81%
03:00 +3°C° 0 mm 1 mps 767 mmHg 82%
04:00 +3°C° 0 mm 1 mps 767 mmHg 81%
05:00 +3°C° 0 mm 1 mps 767 mmHg 80%
06:00 +4°C° 0 mm 1 mps 767 mmHg 78%
07:00 +5°C° 0 mm 1 mps 767 mmHg 71%
08:00 +7°C° 0 mm 1 mps 767 mmHg 63%
09:00 +9°C° 0 mm 1 mps 767 mmHg 56%
10:00 +10°C° 0 mm 1 mps 767 mmHg 51%
11:00 +11°C° 0 mm 1 mps 767 mmHg 46%
12:00 +12°C° 0 mm 1 mps 766 mmHg 41%
13:00 +12°C° 0 mm 1 mps 766 mmHg 40%
14:00 +13°C° 0 mm 1 mps 766 mmHg 40%
15:00 +13°C° 0 mm 2 mps 765 mmHg 40%
16:00 +13°C° 0 mm 2 mps 765 mmHg 46%
17:00 +12°C° 0 mm 2 mps 765 mmHg 52%
18:00 +10°C° 0 mm 2 mps 765 mmHg 58%
19:00 +9°C° 0 mm 2 mps 765 mmHg 62%
20:00 +8°C° 0 mm 2 mps 766 mmHg 66%
21:00 +7°C° 0 mm 2 mps 766 mmHg 70%
22:00 +8°C° 0 mm 1 mps 766 mmHg 73%
23:00 +7°C° 0 mm 1 mps 765 mmHg 76%

Day after tomorrow, 19 April, Monday

Time Temperature Precipitation Wind Pressure Humidity
00:00 +6°C° 0 mm 1 mps 765 mmHg 79%
01:00 +6°C° 0 mm 1 mps 765 mmHg 82%
02:00 +5°C° 0 mm 1 mps 765 mmHg 85%
03:00 +5°C° 0 mm 1 mps 765 mmHg 88%
04:00 +5°C° 0 mm 1 mps 765 mmHg 88%
05:00 +5°C° 0 mm 1 mps 765 mmHg 89%
06:00 +5°C° 0 mm 1 mps 765 mmHg 89%
07:00 +6°C° 0 mm 2 mps 764 mmHg 84%
08:00 +8°C° 0 mm 2 mps 764 mmHg 79%
09:00 +10°C° 0 mm 2 mps 764 mmHg 73%
10:00 +12°C° 0 mm 2 mps 764 mmHg 69%
11:00 +13°C° 0 mm 2 mps 763 mmHg 64%
12:00 +14°C° 0 mm 2 mps 763 mmHg 59%
13:00 +14°C° 0.1 mm 2 mps 763 mmHg 60%
14:00 +14°C° 0.1 mm 2 mps 762 mmHg 60%
15:00 +14°C° 0.1 mm 2 mps 762 mmHg 61%
16:00 +13°C° 0.1 mm 2 mps 762 mmHg 66%
17:00 +13°C° 0.1 mm 2 mps 762 mmHg 72%
18:00 +11°C° 0.1 mm 3 mps 762 mmHg 78%
19:00 +10°C° 0 mm 2 mps 762 mmHg 82%
20:00 +8°C° 0 mm 2 mps 762 mmHg 86%
21:00 +7°C° 0 mm 2 mps 763 mmHg 90%
22:00 +7°C° 0 mm 2 mps 762 mmHg 91%
23:00 +7°C° 0 mm 1 mps 762 mmHg 91%

20 April, Tuesday

Time Temperature Precipitation Wind Pressure Humidity
00:00 +7°C° 0 mm 1 mps 762 mmHg 92%
01:00 +6°C° 0 mm 1 mps 762 mmHg 92%
02:00 +6°C° 0 mm 1 mps 762 mmHg 91%
03:00 +6°C° 0 mm 1 mps 762 mmHg 91%
04:00 +6°C° 0 mm 1 mps 762 mmHg 90%
05:00 +6°C° 0 mm 1 mps 762 mmHg 89%
06:00 +6°C° 0 mm 1 mps 762 mmHg 88%
07:00 +7°C° 0 mm 2 mps 762 mmHg 81%
08:00 +9°C° 0 mm 2 mps 762 mmHg 73%
09:00 +11°C° 0 mm 3 mps 762 mmHg 65%
10:00 +12°C° 0 mm 3 mps 762 mmHg 61%
11:00 +13°C° 0 mm 3 mps 762 mmHg 57%
12:00 +14°C° 0 mm 3 mps 761 mmHg 53%
13:00 +14°C° 0 mm 3 mps 761 mmHg 56%
14:00 +13°C° 0 mm 3 mps 761 mmHg 58%
15:00 +13°C° 0 mm 3 mps 761 mmHg 60%
16:00 +13°C° 0 mm 3 mps 761 mmHg 63%
17:00 +13°C° 0 mm 2 mps 762 mmHg 65%
18:00 +13°C° 0 mm 2 mps 762 mmHg 68%
19:00 +12°C° 0 mm 2 mps 762 mmHg 72%
20:00 +9°C° 0 mm 2 mps 762 mmHg 76%
21:00 +9°C° 0 mm 1 mps 762 mmHg 80%
22:00 +8°C° 0 mm 2 mps 762 mmHg 82%
23:00 +8°C° 0 mm 2 mps 763 mmHg 84%

21 April, Wednesday

Time Temperature Precipitation Wind Pressure Humidity
00:00 +7°C° 0 mm 2 mps 763 mmHg 85%
01:00 +7°C° 0 mm 3 mps 763 mmHg 87%
02:00 +5°C° 0 mm 3 mps 763 mmHg 89%
03:00 +5°C° 0 mm 3 mps 763 mmHg 91%
04:00 +5°C° 0 mm 3 mps 763 mmHg 90%
05:00 +5°C° 0 mm 4 mps 764 mmHg 88%
06:00 +6°C° 0 mm 4 mps 764 mmHg 87%
07:00 +7°C° 0 mm 4 mps 765 mmHg 77%
08:00 +8°C° 0 mm 5 mps 765 mmHg 66%
09:00 +8°C° 0 mm 5 mps 765 mmHg 56%
10:00 +9°C° 0 mm 5 mps 765 mmHg 52%
11:00 +10°C° 0 mm 5 mps 765 mmHg 49%
12:00 +12°C° 0 mm 5 mps 765 mmHg 45%
13:00 +12°C° 0 mm 5 mps 766 mmHg 45%
14:00 +12°C° 0 mm 4 mps 766 mmHg 44%
15:00 +12°C° 0 mm 4 mps 766 mmHg 44%
16:00 +11°C° 0 mm 4 mps 766 mmHg 49%
17:00 +11°C° 0 mm 3 mps 766 mmHg 54%
18:00 +10°C° 0 mm 3 mps 766 mmHg 58%
19:00 +8°C° 0 mm 3 mps 767 mmHg 63%
20:00 +7°C° 0 mm 2 mps 767 mmHg 67%
21:00 +5°C° 0 mm 2 mps 768 mmHg 72%
22:00 +6°C° 0 mm 1 mps 768 mmHg 73%
23:00 +5°C° 0 mm 1 mps 768 mmHg 74%

22 April, Thursday

Time Temperature Precipitation Wind Pressure Humidity
00:00 +4°C° 0 mm 0 mps 768 mmHg 75%
01:00 +5°C° 0 mm 1 mps 768 mmHg 76%
02:00 +5°C° 0 mm 1 mps 768 mmHg 77%
03:00 +4°C° 0 mm 1 mps 768 mmHg 78%
04:00 +5°C° 0 mm 1 mps 768 mmHg 79%
05:00 +5°C° 0 mm 1 mps 768 mmHg 80%
06:00 +5°C° 0 mm 1 mps 769 mmHg 81%
07:00 +6°C° 0 mm 2 mps 769 mmHg 74%
08:00 +8°C° 0 mm 2 mps 769 mmHg 66%
09:00 +10°C° 0 mm 3 mps 769 mmHg 59%
10:00 +11°C° 0 mm 3 mps 769 mmHg 55%
11:00 +12°C° 0 mm 3 mps 769 mmHg 51%
12:00 +13°C° 0 mm 3 mps 769 mmHg 47%
13:00 +14°C° 0 mm 3 mps 769 mmHg 46%
14:00 +14°C° 0 mm 3 mps 769 mmHg 45%
15:00 +14°C° 0 mm 3 mps 769 mmHg 45%
16:00 +13°C° 0 mm 3 mps 769 mmHg 50%
17:00 +12°C° 0 mm 3 mps 769 mmHg 55%
18:00 +11°C° 0 mm 3 mps 769 mmHg 61%
19:00 +9°C° 0 mm 3 mps 770 mmHg 67%
20:00 +8°C° 0 mm 2 mps 770 mmHg 72%
21:00 +6°C° 0 mm 2 mps 770 mmHg 78%
22:00 +6°C° 0 mm 2 mps 770 mmHg 80%
23:00 +5°C° 0 mm 2 mps 771 mmHg 83%
Show more